• In Norway
  • List of Countries
  • For 7 days
  • Water Temperature
  • Satellite Maps
  • Weather Map
  • Weather Widgets
  • user-avatar
    Login

    Hourly Weather Sidi Bu-l-Abbas

    Today, 24 September, Monday

    Time Temperature Precipitation Wind Pressure Humidity
    00:00 +27°C° 0 mm 1 mps 724 mmHg 40%
    01:00 +27°C° 0 mm 1 mps 723 mmHg 40%
    02:00 +27°C° 0 mm 1 mps 723 mmHg 41%
    03:00 +26°C° 0 mm 1 mps 723 mmHg 42%
    04:00 +26°C° 0 mm 1 mps 723 mmHg 42%
    05:00 +25°C° 0 mm 1 mps 723 mmHg 42%
    06:00 +25°C° 0 mm 1 mps 723 mmHg 43%
    07:00 +27°C° 0 mm 1 mps 723 mmHg 38%
    08:00 +29°C° 0 mm 1 mps 724 mmHg 33%
    09:00 +30°C° 0 mm 1 mps 724 mmHg 29%
    10:00 +31°C° 0 mm 1 mps 724 mmHg 27%
    11:00 +32°C° 0 mm 2 mps 724 mmHg 25%
    12:00 +34°C° 0 mm 2 mps 724 mmHg 23%
    13:00 +34°C° 0 mm 3 mps 724 mmHg 23%
    14:00 +35°C° 0 mm 4 mps 723 mmHg 23%
    15:00 +35°C° 0 mm 4 mps 723 mmHg 23%
    16:00 +34°C° 0 mm 4 mps 723 mmHg 27%
    17:00 +33°C° 0 mm 4 mps 723 mmHg 31%
    18:00 +32°C° 0 mm 4 mps 723 mmHg 34%
    19:00 +30°C° 0 mm 3 mps 723 mmHg 38%
    20:00 +29°C° 0 mm 2 mps 723 mmHg 42%
    21:00 +28°C° 0 mm 2 mps 724 mmHg 45%
    22:00 +28°C° 0 mm 1 mps 724 mmHg 48%
    23:00 +27°C° 0 mm 1 mps 723 mmHg 50%

    Tomorrow, 25 September, Tuesday

    Time Temperature Precipitation Wind Pressure Humidity
    00:00 +27°C° 0 mm 1 mps 723 mmHg 53%
    01:00 +26°C° 0 mm 1 mps 723 mmHg 54%
    02:00 +26°C° 0 mm 1 mps 723 mmHg 55%
    03:00 +25°C° 0 mm 1 mps 723 mmHg 57%
    04:00 +25°C° 0 mm 1 mps 723 mmHg 59%
    05:00 +25°C° 0 mm 1 mps 723 mmHg 60%
    06:00 +24°C° 0 mm 1 mps 723 mmHg 62%
    07:00 +26°C° 0 mm 1 mps 723 mmHg 56%
    08:00 +27°C° 0 mm 1 mps 724 mmHg 50%
    09:00 +29°C° 0 mm 1 mps 724 mmHg 44%
    10:00 +30°C° 0 mm 1 mps 724 mmHg 41%
    11:00 +31°C° 0 mm 2 mps 724 mmHg 37%
    12:00 +33°C° 0 mm 3 mps 724 mmHg 34%
    13:00 +33°C° 0 mm 3 mps 724 mmHg 34%
    14:00 +33°C° 0 mm 4 mps 723 mmHg 33%
    15:00 +34°C° 0 mm 5 mps 723 mmHg 33%
    16:00 +33°C° 0 mm 5 mps 723 mmHg 38%
    17:00 +30°C° 0 mm 5 mps 723 mmHg 42%
    18:00 +29°C° 0 mm 5 mps 723 mmHg 47%
    19:00 +29°C° 0 mm 4 mps 723 mmHg 50%
    20:00 +28°C° 0 mm 4 mps 724 mmHg 54%
    21:00 +27°C° 0 mm 3 mps 724 mmHg 57%
    22:00 +27°C° 0 mm 3 mps 724 mmHg 60%
    23:00 +26°C° 0 mm 3 mps 724 mmHg 62%

    Day after tomorrow, 26 September, Wednesday

    Time Temperature Precipitation Wind Pressure Humidity
    00:00 +26°C° 0 mm 3 mps 724 mmHg 64%
    01:00 +25°C° 0 mm 3 mps 724 mmHg 66%
    02:00 +25°C° 0 mm 3 mps 724 mmHg 68%
    03:00 +25°C° 0 mm 3 mps 724 mmHg 69%
    04:00 +24°C° 0 mm 3 mps 724 mmHg 71%
    05:00 +24°C° 0 mm 3 mps 724 mmHg 72%
    06:00 +24°C° 0 mm 3 mps 724 mmHg 74%
    07:00 +24°C° 0 mm 3 mps 725 mmHg 69%
    08:00 +25°C° 0 mm 3 mps 725 mmHg 64%
    09:00 +26°C° 0 mm 4 mps 726 mmHg 59%
    10:00 +27°C° 0 mm 4 mps 726 mmHg 54%
    11:00 +29°C° 0 mm 5 mps 726 mmHg 49%
    12:00 +30°C° 0 mm 5 mps 726 mmHg 43%
    13:00 +30°C° 0 mm 6 mps 725 mmHg 44%
    14:00 +30°C° 0 mm 6 mps 725 mmHg 44%
    15:00 +30°C° 0 mm 7 mps 725 mmHg 45%
    16:00 +29°C° 0 mm 6 mps 725 mmHg 50%
    17:00 +28°C° 0 mm 6 mps 725 mmHg 56%
    18:00 +26°C° 0 mm 5 mps 725 mmHg 61%
    19:00 +26°C° 0 mm 4 mps 725 mmHg 64%
    20:00 +25°C° 0 mm 4 mps 725 mmHg 67%
    21:00 +25°C° 0 mm 3 mps 726 mmHg 69%
    22:00 +25°C° 0 mm 2 mps 726 mmHg 71%
    23:00 +24°C° 0 mm 2 mps 726 mmHg 73%

    27 September, Thursday

    Time Temperature Precipitation Wind Pressure Humidity
    00:00 +24°C° 0 mm 2 mps 725 mmHg 75%
    01:00 +24°C° 0 mm 2 mps 725 mmHg 77%
    02:00 +23°C° 0 mm 2 mps 725 mmHg 78%
    03:00 +23°C° 0 mm 1 mps 725 mmHg 80%
    04:00 +23°C° 0 mm 1 mps 725 mmHg 81%
    05:00 +22°C° 0 mm 1 mps 725 mmHg 82%
    06:00 +20°C° 0 mm 0 mps 725 mmHg 84%
    07:00 +21°C° 0 mm 0 mps 725 mmHg 76%
    08:00 +25°C° 0 mm 1 mps 726 mmHg 68%
    09:00 +26°C° 0 mm 1 mps 726 mmHg 61%
    10:00 +27°C° 0 mm 1 mps 726 mmHg 54%
    11:00 +29°C° 0 mm 2 mps 726 mmHg 48%
    12:00 +30°C° 0 mm 2 mps 726 mmHg 42%
    13:00 +30°C° 0 mm 3 mps 725 mmHg 41%
    14:00 +31°C° 0 mm 3 mps 725 mmHg 41%
    15:00 +32°C° 0 mm 4 mps 725 mmHg 41%
    16:00 +30°C° 0 mm 4 mps 725 mmHg 44%
    17:00 +29°C° 0 mm 4 mps 725 mmHg 48%
    18:00 +29°C° 0 mm 4 mps 725 mmHg 52%
    19:00 +28°C° 0.1 mm 3 mps 725 mmHg 54%
    20:00 +28°C° 0.1 mm 3 mps 725 mmHg 57%
    21:00 +27°C° 0.1 mm 3 mps 725 mmHg 60%
    22:00 +27°C° 0 mm 2 mps 725 mmHg 61%
    23:00 +26°C° 0 mm 2 mps 725 mmHg 63%

    28 September, Friday

    Time Temperature Precipitation Wind Pressure Humidity
    00:00 +26°C° 0 mm 2 mps 725 mmHg 64%
    01:00 +26°C° 0 mm 2 mps 724 mmHg 66%
    02:00 +25°C° 0 mm 2 mps 724 mmHg 67%
    03:00 +25°C° 0 mm 2 mps 724 mmHg 68%
    04:00 +25°C° 0 mm 2 mps 724 mmHg 68%
    05:00 +25°C° 0 mm 2 mps 723 mmHg 69%
    06:00 +24°C° 0 mm 2 mps 723 mmHg 70%
    07:00 +25°C° 0 mm 2 mps 724 mmHg 64%
    08:00 +27°C° 0 mm 2 mps 724 mmHg 58%
    09:00 +28°C° 0 mm 2 mps 724 mmHg 53%
    10:00 +29°C° 0 mm 2 mps 724 mmHg 48%
    11:00 +29°C° 0 mm 2 mps 724 mmHg 44%
    12:00 +30°C° 0 mm 2 mps 724 mmHg 40%
    13:00 +31°C° 0 mm 2 mps 723 mmHg 40%
    14:00 +31°C° 0 mm 3 mps 723 mmHg 40%
    15:00 +31°C° 0 mm 3 mps 722 mmHg 40%
    16:00 +30°C° 0 mm 3 mps 722 mmHg 44%
    17:00 +29°C° 0 mm 3 mps 722 mmHg 48%
    18:00 +29°C° 0 mm 4 mps 722 mmHg 52%
    19:00 +28°C° 0 mm 3 mps 722 mmHg 55%
    20:00 +28°C° 0 mm 2 mps 722 mmHg 58%
    21:00 +27°C° 0 mm 2 mps 722 mmHg 61%
    22:00 +27°C° 0.1 mm 2 mps 722 mmHg 62%
    23:00 +26°C° 0.1 mm 1 mps 722 mmHg 64%

    29 September, Saturday

    Time Temperature Precipitation Wind Pressure Humidity
    00:00 +26°C° 0.1 mm 1 mps 721 mmHg 65%
    01:00 +26°C° 0 mm 1 mps 721 mmHg 66%
    02:00 +25°C° 0 mm 1 mps 721 mmHg 67%
    03:00 +25°C° 0 mm 1 mps 720 mmHg 68%
    04:00 +25°C° 0 mm 1 mps 720 mmHg 68%
    05:00 +24°C° 0 mm 1 mps 720 mmHg 69%
    06:00 +24°C° 0 mm 1 mps 720 mmHg 69%
    07:00 +25°C° 0 mm 1 mps 721 mmHg 62%
    08:00 +27°C° 0 mm 1 mps 721 mmHg 54%
    09:00 +28°C° 0 mm 1 mps 721 mmHg 47%
    10:00 +29°C° 0 mm 1 mps 721 mmHg 43%
    11:00 +30°C° 0 mm 2 mps 721 mmHg 39%
    12:00 +31°C° 0 mm 2 mps 721 mmHg 34%
    13:00 +31°C° 0 mm 3 mps 721 mmHg 34%
    14:00 +33°C° 0 mm 3 mps 720 mmHg 33%
    15:00 +33°C° 0 mm 4 mps 720 mmHg 33%
    16:00 +32°C° 0 mm 4 mps 720 mmHg 36%
    17:00 +30°C° 0 mm 4 mps 720 mmHg 39%
    18:00 +29°C° 0 mm 4 mps 720 mmHg 42%
    19:00 +29°C° 0 mm 3 mps 720 mmHg 44%
    20:00 +28°C° 0 mm 3 mps 720 mmHg 46%
    21:00 +28°C° 0 mm 2 mps 721 mmHg 48%
    22:00 +27°C° 0 mm 2 mps 720 mmHg 49%
    23:00 +27°C° 0 mm 2 mps 720 mmHg 51%
    Show more